Weather History for Pipestone, MN

Change the Weather History Date:

Tuesday, September 17, 2013

  Actual Average Record
Temperature  
Mean Temperature 56 °F -  
Max Temperature 62 °F 68 °F 87 °F (2000)
Min Temperature 51 °F 47 °F 42 °F (2012)
Degree Days  
Heating Degree Days 8    
Growing Degree Days 6 (Base 50)    
Moisture  
Dew Point 55 °F    
Average Humidity 91    
Maximum Humidity 100    
Minimum Humidity 82    
Precipitation  
Precipitation 0.01 in - - ()
Sea Level Pressure  
Sea Level Pressure 30.02 in    
Wind  
Wind Speed 11 mph (South)    
Max Wind Speed 16 mph    
Max Gust Speed 22 mph    
Visibility 6 miles    
Events Rain    
Averages and records for this station are not official NWS values.
T = Trace of Precipitation, MM = Missing Value Source: NWS Daily Summary

Daily Weather History Graph

Daily Weather History Graph

Search for Another Location

Airport:

Trip Planner

Search our weather history database for the weather conditions in past years. The results will help you decide how hot, cold, wet, or windy it might be!

Date:

Astronomy

Sep. 17, 2013 Rise Set
Actual Time 7:06 AM CDT 7:31 PM CDT
Civil Twilight 6:38 AM CDT 8:00 PM CDT
Nautical Twilight 6:03 AM CDT 8:34 PM CDT
Astronomical Twilight 5:28 AM CDT 9:09 PM CDT
Moon 6:20 PM CDT (9/17) 4:59 AM CDT (9/17)
Length of Visible Light 13h 22m
Length of Day
12h 24m
Waxing Gibbous, 96% of the Moon is Illuminated
Sep 17
Waxing Gibbous
Sep 19
Full
Sep 26
Last Quarter
Oct 4
New
Oct 11
First Quarter

Hourly Weather History & Observations

Time (CDT) Temp. Dew Point Humidity Pressure Visibility Wind Dir Wind Speed Gust Speed Precip Events Conditions
12:13 AM 53.6 °F 48.2 °F 82% 30.19 in 10.0 mi South 12.7 mph 16.1 mph N/A   Clear
12:33 AM 53.6 °F 48.2 °F 82% 30.19 in 10.0 mi South 11.5 mph 17.3 mph N/A   Clear
12:53 AM 51.8 °F 48.2 °F 88% 30.19 in 10.0 mi South 9.2 mph - N/A   Clear
1:13 AM 51.8 °F 48.2 °F 88% 30.19 in 10.0 mi South 9.2 mph - N/A   Clear
1:33 AM 51.8 °F 48.2 °F 88% 30.18 in 10.0 mi South 6.9 mph - N/A   Clear
1:53 AM 51.8 °F 48.2 °F 88% 30.18 in 10.0 mi South 6.9 mph - N/A   Clear
2:13 AM 51.8 °F 48.2 °F 88% 30.18 in 10.0 mi South 9.2 mph - N/A   Clear
2:33 AM 51.8 °F 48.2 °F 88% 30.17 in 10.0 mi South 9.2 mph - N/A   Clear
2:53 AM 51.8 °F 48.2 °F 88% 30.16 in 10.0 mi South 10.4 mph - N/A   Clear
3:13 AM 51.8 °F 50.0 °F 94% 30.15 in 10.0 mi South 8.1 mph - N/A   Mostly Cloudy
3:33 AM 53.6 °F 50.0 °F 88% 30.15 in 10.0 mi South 10.4 mph - N/A   Overcast
3:53 AM 53.6 °F 50.0 °F 88% 30.14 in 10.0 mi South 12.7 mph - N/A   Overcast
4:13 AM 53.6 °F 51.8 °F 94% 30.13 in 10.0 mi South 12.7 mph 19.6 mph N/A   Overcast
4:33 AM 53.6 °F 51.8 °F 94% 30.12 in 10.0 mi South 9.2 mph - N/A   Overcast
4:53 AM 53.6 °F 51.8 °F 94% 30.12 in 10.0 mi South 11.5 mph 18.4 mph N/A   Overcast
5:13 AM 53.6 °F 51.8 °F 94% 30.11 in 10.0 mi South 13.8 mph 20.7 mph N/A   Overcast
5:33 AM 53.6 °F 51.8 °F 94% 30.10 in 7.0 mi South 12.7 mph 17.3 mph N/A   Overcast
5:54 AM 53.6 °F 51.8 °F 94% 30.10 in 7.0 mi South 9.2 mph - N/A   Overcast
6:13 AM 53.6 °F 51.8 °F 94% 30.10 in 7.0 mi South 11.5 mph - N/A   Overcast
6:33 AM 55.4 °F 51.8 °F 88% 30.10 in 7.0 mi South 10.4 mph 16.1 mph N/A   Overcast
6:53 AM 55.4 °F 53.6 °F 94% 30.09 in 7.0 mi South 13.8 mph - N/A   Overcast
7:13 AM 55.4 °F 53.6 °F 94% 30.09 in 7.0 mi South 12.7 mph 18.4 mph N/A   Overcast
7:33 AM 55.4 °F 53.6 °F 94% 30.09 in 5.0 mi South 12.7 mph 19.6 mph N/A   Overcast
7:53 AM 55.4 °F 53.6 °F 94% 30.08 in 7.0 mi South 12.7 mph - N/A   Overcast
8:13 AM 55.4 °F 53.6 °F 94% 30.08 in 5.0 mi South 11.5 mph 17.3 mph N/A   Overcast
8:33 AM 55.4 °F 53.6 °F 94% 30.08 in 5.0 mi South 10.4 mph - N/A   Overcast
8:53 AM 55.4 °F 53.6 °F 94% 30.07 in 7.0 mi South 11.5 mph 18.4 mph N/A   Overcast
9:13 AM 55.4 °F 53.6 °F 94% 30.07 in 7.0 mi South 11.5 mph 18.4 mph N/A   Overcast
9:34 AM 55.4 °F 53.6 °F 94% 30.06 in 7.0 mi South 13.8 mph 19.6 mph N/A   Overcast
9:53 AM 55.4 °F 53.6 °F 94% 30.06 in 7.0 mi South 15.0 mph 20.7 mph N/A   Overcast
10:13 AM 57.2 °F 53.6 °F 88% 30.06 in 10.0 mi South 11.5 mph 17.3 mph N/A   Overcast
10:34 AM 57.2 °F 55.4 °F 94% 30.05 in 10.0 mi South 16.1 mph - N/A   Overcast
10:53 AM 57.2 °F 55.4 °F 94% 30.04 in 7.0 mi South 11.5 mph 19.6 mph N/A   Overcast
11:13 AM 57.2 °F 55.4 °F 94% 30.04 in 5.0 mi South 12.7 mph 21.9 mph N/A   Overcast
11:33 AM 57.2 °F 55.4 °F 94% 30.03 in 7.0 mi South 15.0 mph - N/A   Overcast
11:53 AM 57.2 °F 55.4 °F 94% 30.03 in 10.0 mi South 15.0 mph 20.7 mph N/A   Overcast
12:14 PM 59.0 °F 55.4 °F 88% 30.02 in 10.0 mi South 15.0 mph 19.6 mph N/A   Overcast
12:33 PM 59.0 °F 55.4 °F 88% 30.02 in 10.0 mi South 11.5 mph 17.3 mph N/A   Overcast
12:53 PM 59.0 °F 55.4 °F 88% 30.01 in 7.0 mi South 13.8 mph 19.6 mph N/A   Overcast
1:14 PM 60.8 °F 55.4 °F 82% 30.00 in 10.0 mi South 12.7 mph - N/A   Overcast
1:33 PM 60.8 °F 55.4 °F 82% 29.99 in 10.0 mi South 12.7 mph 17.3 mph N/A   Overcast
1:53 PM 60.8 °F 57.2 °F 88% 29.99 in 10.0 mi South 15.0 mph 18.4 mph N/A   Overcast
2:13 PM 60.8 °F 55.4 °F 82% 29.98 in 7.0 mi South 12.7 mph 17.3 mph N/A   Overcast
2:33 PM 60.8 °F 57.2 °F 88% 29.97 in 5.0 mi South 10.4 mph - N/A   Overcast
2:53 PM 60.8 °F 57.2 °F 88% 29.96 in 5.0 mi South 12.7 mph 18.4 mph N/A   Overcast
3:13 PM 60.8 °F 57.2 °F 88% 29.95 in 4.0 mi South 12.7 mph 17.3 mph N/A   Overcast
3:33 PM 60.8 °F 57.2 °F 88% 29.94 in 3.0 mi South 12.7 mph 17.3 mph N/A   Overcast
3:53 PM 60.8 °F 57.2 °F 88% 29.93 in 1.5 mi SSE 11.5 mph 16.1 mph N/A   Overcast
4:13 PM 59.0 °F 57.2 °F 94% 29.93 in 1.0 mi SSE 11.5 mph 17.3 mph N/A   Overcast
4:33 PM 59.0 °F 57.2 °F 94% 29.92 in 1.0 mi SSE 11.5 mph 17.3 mph N/A Rain Rain
4:54 PM 60.8 °F 57.2 °F 88% 29.92 in 1.5 mi SSE 12.7 mph - N/A Rain Rain
5:13 PM 60.8 °F 57.2 °F 88% 29.92 in 1.8 mi SSE 10.4 mph 16.1 mph N/A   Drizzle
5:33 PM 60.8 °F 57.2 °F 88% 29.91 in 2.0 mi SSE 15.0 mph 18.4 mph N/A Rain Light Rain
5:54 PM 60.8 °F 57.2 °F 88% 29.91 in 1.2 mi SSE 13.8 mph 18.4 mph N/A   Light Drizzle
6:13 PM 60.8 °F 57.2 °F 88% 29.91 in 1.0 mi SSE 12.7 mph 16.1 mph N/A   Light Drizzle
6:33 PM 60.8 °F 57.2 °F 88% 29.91 in 0.8 mi SSE 8.1 mph - N/A   Light Drizzle
6:54 PM 60.8 °F 57.2 °F 88% 29.90 in 0.8 mi SSE 9.2 mph - N/A   Drizzle
7:13 PM 60.8 °F 57.2 °F 88% 29.89 in 0.8 mi SSE 8.1 mph - N/A   Drizzle
7:33 PM 60.8 °F 57.2 °F 88% 29.89 in 1.5 mi SSE 9.2 mph - N/A   Drizzle
7:53 PM 60.8 °F 57.2 °F 88% 29.89 in 1.8 mi SSE 8.1 mph - N/A   Drizzle
8:13 PM 60.8 °F 59.0 °F 94% 29.89 in 1.8 mi SSE 10.4 mph - N/A   Drizzle
8:33 PM 60.8 °F 59.0 °F 94% 29.89 in 2.0 mi SSE 9.2 mph - N/A   Drizzle
8:53 PM 60.8 °F 59.0 °F 94% 29.88 in 2.5 mi SSE 9.2 mph - N/A   Light Drizzle
9:13 PM 60.8 °F 59.0 °F 94% 29.88 in 3.0 mi SSE 11.5 mph - N/A   Drizzle
9:33 PM 60.8 °F 60.8 °F 100% 29.87 in 4.0 mi SSE 11.5 mph 16.1 mph N/A   Drizzle
9:53 PM 60.8 °F 59.0 °F 94% 29.88 in 4.0 mi SSE 11.5 mph 17.3 mph 0.01 in   Drizzle
10:13 PM 60.8 °F 60.8 °F 100% 29.88 in 3.0 mi SSE 12.7 mph - N/A   Light Drizzle
10:33 PM 60.8 °F 60.8 °F 100% 29.88 in 1.2 mi SSE 10.4 mph - N/A Rain Light Rain
10:53 PM 60.8 °F 60.8 °F 100% 29.87 in 0.8 mi SSE 10.4 mph 16.1 mph N/A Rain Light Rain
11:13 PM 62.6 °F 60.8 °F 94% 29.87 in 0.5 mi SSE 11.5 mph - N/A Rain Light Rain
11:33 PM 62.6 °F 60.8 °F 94% 29.87 in 0.8 mi South 10.4 mph 16.1 mph N/A Rain Light Rain
11:53 PM 62.6 °F 60.8 °F 94% 29.86 in 0.8 mi South 10.4 mph - N/A   Overcast